Berthoud Pass, CO

8:09 AM MDT on September 26, 2017 (GMT -0600)
Berthoud Pass

Weather History for K0CO - November, 2013

Change the Weather History Date:

Saturday, November 2, 2013

  Actual Average (KBJC) Record (KBJC)
Temperature  
Mean Temperature 22 °F -  
Max Temperature 32 °F 52 °F 75 °F (2005)
Min Temperature 12 °F 33 °F 0 °F (1991)
Degree Days  
Heating Degree Days 43    
Moisture  
Dew Point 15 °F    
Average Humidity 66    
Maximum Humidity 69    
Minimum Humidity 58    
Precipitation  
Precipitation 0.00 in - - ()
Sea Level Pressure  
Sea Level Pressure 30.30 in    
Wind  
Wind Speed 27 mph (WNW)    
Max Wind Speed 38 mph    
Max Gust Speed 55 mph    
Visibility 10 miles    
Events      
Averages and records for this station are not official NWS values.
T = Trace of Precipitation, MM = Missing Value Source: NWS Daily Summary

Daily Weather History Graph

Daily Weather History Graph

Search for Another Location

Airport or City:

Trip Planner

Search our weather history database for the weather conditions in past years. The results will help you decide how hot, cold, wet, or windy it might be!

Date:

Astronomy

Nov. 02, 2013 Rise Set
Actual Time 7:33 AM MDT 5:59 PM MDT
Civil Twilight 7:05 AM MDT 6:27 PM MDT
Nautical Twilight 6:33 AM MDT 6:59 PM MDT
Astronomical Twilight 6:01 AM MDT 7:30 PM MDT
Moon 6:33 AM MDT (11/2) 5:32 PM MDT (11/2)
Length of Visible Light 11h 22m
Length of Day
10h 26m
Waning Crescent, 1% of the Moon is Illuminated
Nov 2
Waning Crescent
Nov 3
New
Nov 9
First Quarter
Nov 17
Full
Nov 25
Last Quarter

Hourly Weather History & Observations

Time (MDT) Temp. Windchill Dew Point Humidity Pressure Visibility Wind Dir Wind Speed Gust Speed Precip Events Conditions
12:15 AM 12.2 °F -8.9 °F 3.2 °F 67% 30.32 in - NW 28.8 mph 34.5 mph N/A   Clear
12:35 AM 12.2 °F -8.9 °F 3.2 °F 67% 30.32 in - NW 28.8 mph 39.1 mph N/A   Clear
12:55 AM 12.2 °F -10.2 °F 3.2 °F 67% 30.32 in - NW 33.4 mph 39.1 mph N/A   Clear
1:15 AM 12.2 °F -8.2 °F 3.2 °F 67% 30.33 in - NW 26.5 mph 36.8 mph N/A   Clear
1:35 AM 12.2 °F -9.3 °F 3.2 °F 67% 30.33 in - NW 29.9 mph 35.7 mph N/A   Clear
1:55 AM 12.2 °F -8.6 °F 3.2 °F 67% 30.34 in - NW 27.6 mph 34.5 mph N/A   Clear
2:15 AM 12.2 °F -8.6 °F 3.2 °F 67% 30.34 in - NW 27.6 mph 34.5 mph N/A   Clear
2:35 AM 12.2 °F -7.5 °F 3.2 °F 67% 30.36 in - NW 24.2 mph - N/A   Clear
2:55 AM 12.2 °F -8.2 °F 3.2 °F 67% 30.35 in - NW 26.5 mph 33.4 mph N/A   Clear
3:15 AM 12.2 °F -8.2 °F 3.2 °F 67% 30.35 in - NW 26.5 mph 32.2 mph N/A   Clear
3:35 AM 12.2 °F -7.9 °F 3.2 °F 67% 30.35 in - NNW 25.3 mph 31.1 mph N/A   Clear
3:55 AM 12.2 °F -8.2 °F 3.2 °F 67% 30.35 in - NW 26.5 mph 31.1 mph N/A   Clear
4:15 AM 12.2 °F -8.9 °F 3.2 °F 67% 30.35 in - NW 28.8 mph 35.7 mph N/A   Clear
4:35 AM 14.0 °F -7.1 °F 3.2 °F 62% 30.34 in - NW 31.1 mph 40.3 mph N/A   Clear
4:55 AM 12.2 °F -7.9 °F 3.2 °F 67% 30.35 in - NW 25.3 mph - N/A   Clear
5:15 AM 14.0 °F -6.2 °F 3.2 °F 62% 30.33 in - NW 27.6 mph - N/A   Clear
5:35 AM 14.0 °F -6.2 °F 3.2 °F 62% 30.33 in - NW 27.6 mph 35.7 mph N/A   Clear
5:55 AM 14.0 °F -5.5 °F 3.2 °F 62% 30.35 in - NW 25.3 mph 29.9 mph N/A   Clear
6:15 AM 14.0 °F -6.5 °F 3.2 °F 62% 30.34 in 10.0 mi NW 28.8 mph - N/A   Clear
6:35 AM 14.0 °F -6.2 °F 5.0 °F 67% 30.34 in 10.0 mi NW 27.6 mph 32.2 mph N/A   Clear
6:55 AM 14.0 °F -5.1 °F 3.2 °F 62% 30.34 in 10.0 mi NW 24.2 mph - N/A   Clear
7:15 AM 14.0 °F -5.1 °F 3.2 °F 62% 30.34 in 10.0 mi NW 24.2 mph 31.1 mph N/A   Clear
7:35 AM 15.8 °F -2.3 °F 5.0 °F 62% 30.35 in 10.0 mi NW 23.0 mph 31.1 mph N/A   Clear
7:55 AM 15.8 °F -1.9 °F 5.0 °F 62% 30.36 in 10.0 mi NW 21.9 mph 28.8 mph N/A   Clear
8:15 AM 17.6 °F -0.6 °F 5.0 °F 58% 30.37 in 10.0 mi WNW 25.3 mph 29.9 mph N/A   Clear
8:35 AM 19.4 °F 1.1 °F 8.6 °F 63% 30.37 in 10.0 mi WNW 27.6 mph 33.4 mph N/A   Clear
8:55 AM 21.2 °F 5.2 °F 10.4 °F 63% 30.39 in 10.0 mi WNW 21.9 mph 29.9 mph N/A   Clear
9:15 AM 23.0 °F 6.9 °F 12.2 °F 63% 30.39 in 10.0 mi West 24.2 mph 33.4 mph N/A   Clear
9:35 AM 26.6 °F 13.4 °F 15.8 °F 64% 30.39 in 10.0 mi West 18.4 mph 28.8 mph N/A   Clear
9:55 AM 28.4 °F 14.4 °F 17.6 °F 64% 30.39 in 10.0 mi West 23.0 mph 29.9 mph N/A   Clear
10:15 AM 28.4 °F 14.7 °F 19.4 °F 69% 30.38 in 10.0 mi West 21.9 mph 33.4 mph N/A   Clear
10:35 AM 30.2 °F 19.3 °F 19.4 °F 64% 30.39 in 10.0 mi West 15.0 mph 27.6 mph N/A   Clear
10:55 AM 30.2 °F 17.8 °F 21.2 °F 69% 30.39 in 10.0 mi West 19.6 mph 27.6 mph N/A   Clear
11:15 AM 32.0 °F 19.5 °F 21.2 °F 64% 30.38 in 10.0 mi West 21.9 mph 31.1 mph N/A   Clear
11:35 AM 32.0 °F 19.5 °F 21.2 °F 64% 30.38 in 10.0 mi West 21.9 mph 34.5 mph N/A   Clear
11:55 AM 32.0 °F 17.2 °F 21.2 °F 64% 30.35 in 10.0 mi West 32.2 mph 40.3 mph N/A   Clear
12:15 PM 32.0 °F 18.9 °F 21.2 °F 64% 30.36 in 10.0 mi West 24.2 mph 36.8 mph N/A   Clear
12:35 PM 32.0 °F 18.4 °F 23.0 °F 69% 30.35 in 10.0 mi West 26.5 mph 35.7 mph N/A   Clear
12:55 PM 32.0 °F 21.2 °F 23.0 °F 69% 30.35 in 10.0 mi WNW 16.1 mph 35.7 mph N/A   Clear
1:15 PM 32.0 °F 20.5 °F 23.0 °F 69% 30.34 in 10.0 mi West 18.4 mph 38.0 mph N/A   Clear
1:35 PM 32.0 °F 18.6 °F 23.0 °F 69% 30.31 in 10.0 mi West 25.3 mph 35.7 mph N/A   Clear
1:55 PM 32.0 °F 19.2 °F 23.0 °F 69% 30.31 in 10.0 mi West 23.0 mph 44.9 mph N/A   Clear
2:15 PM 32.0 °F 17.0 °F 23.0 °F 69% 30.29 in 10.0 mi West 33.4 mph 43.7 mph N/A   Clear
2:35 PM 32.0 °F 17.2 °F 23.0 °F 69% 30.28 in 10.0 mi West 32.2 mph - N/A   Clear
2:55 PM 32.0 °F 17.6 °F 23.0 °F 69% 30.28 in 10.0 mi West 29.9 mph 41.4 mph N/A   Clear
3:15 PM 32.0 °F 17.6 °F 23.0 °F 69% 30.27 in 10.0 mi West 29.9 mph 43.7 mph N/A   Clear
3:35 PM 32.0 °F 18.4 °F 23.0 °F 69% 30.28 in 10.0 mi West 26.5 mph 41.4 mph N/A   Clear
3:55 PM 32.0 °F 17.4 °F 23.0 °F 69% 30.26 in 10.0 mi West 31.1 mph 42.6 mph N/A   Clear
4:15 PM 32.0 °F 17.6 °F 23.0 °F 69% 30.25 in 10.0 mi West 29.9 mph 40.3 mph N/A   Clear
4:35 PM 32.0 °F 17.6 °F 23.0 °F 69% 30.25 in 10.0 mi WNW 29.9 mph 42.6 mph N/A   Clear
4:55 PM 32.0 °F 18.1 °F 23.0 °F 69% 30.25 in 10.0 mi West 27.6 mph 38.0 mph N/A   Clear
5:15 PM 32.0 °F 17.2 °F 23.0 °F 69% 30.23 in 10.0 mi West 32.2 mph 44.9 mph N/A   Clear
5:35 PM 32.0 °F 17.9 °F 23.0 °F 69% 30.23 in 10.0 mi West 28.8 mph 43.7 mph N/A   Clear
5:55 PM 32.0 °F 18.1 °F 21.2 °F 64% 30.24 in 10.0 mi West 27.6 mph 40.3 mph N/A   Clear
6:15 PM 30.2 °F 14.3 °F 21.2 °F 69% 30.21 in 10.0 mi West 34.5 mph 43.7 mph N/A   Clear
6:35 PM 32.0 °F - 21.2 °F 64% 30.22 in 10.0 mi North - - N/A   Clear
6:55 PM 32.0 °F 18.1 °F 21.2 °F 64% 30.23 in 10.0 mi West 27.6 mph - N/A   Clear
7:15 PM 30.2 °F 15.2 °F 21.2 °F 69% 30.23 in 10.0 mi West 29.9 mph 44.9 mph N/A   Clear
7:35 PM 30.2 °F 14.9 °F 21.2 °F 69% 30.21 in 10.0 mi West 31.1 mph 40.3 mph N/A   Clear
7:55 PM 32.0 °F 17.6 °F 21.2 °F 64% 30.21 in 10.0 mi West 29.9 mph 55.2 mph N/A   Clear
8:15 PM 32.0 °F 17.2 °F 21.2 °F 64% 30.20 in 10.0 mi West 32.2 mph 41.4 mph N/A   Clear
8:35 PM 32.0 °F 17.9 °F 21.2 °F 64% 30.20 in 10.0 mi West 28.8 mph 38.0 mph N/A   Clear
8:55 PM 32.0 °F 17.9 °F 23.0 °F 69% 30.20 in 10.0 mi West 28.8 mph 46.0 mph N/A   Clear
9:15 PM 32.0 °F 16.7 °F 23.0 °F 69% 30.18 in 10.0 mi West 34.5 mph 41.4 mph N/A   Clear
9:35 PM 32.0 °F 17.2 °F 23.0 °F 69% 30.18 in 10.0 mi West 32.2 mph 40.3 mph N/A   Clear
9:55 PM 32.0 °F 18.1 °F 23.0 °F 69% 30.18 in 10.0 mi West 27.6 mph 39.1 mph N/A   Clear
10:15 PM 32.0 °F 17.2 °F 23.0 °F 69% 30.16 in 10.0 mi West 32.2 mph 41.4 mph N/A   Clear
10:35 PM 32.0 °F 16.2 °F 23.0 °F 69% 30.16 in 10.0 mi West 38.0 mph 48.3 mph N/A   Clear
10:55 PM 32.0 °F 16.3 °F 23.0 °F 69% 30.15 in 10.0 mi West 36.8 mph 44.9 mph N/A   Clear
11:15 PM 32.0 °F 17.6 °F 23.0 °F 69% 30.16 in 10.0 mi West 29.9 mph 47.2 mph N/A   Clear
11:35 PM 32.0 °F 17.6 °F 23.0 °F 69% 30.15 in 10.0 mi West 29.9 mph 42.6 mph N/A   Clear
11:55 PM 32.0 °F 17.0 °F 23.0 °F 69% 30.14 in 10.0 mi West 33.4 mph 43.7 mph N/A   Clear